Location: Cahas Mountain Overlook
(37.0833°N, 80.1000°W)
Time: 06:21:33
(UTC-05:00)

Vanguard 2 Rocket - Visible Passes

Search period start: 13 November 2024 00:00
Search period end: 23 November 2024 00:00
Orbit: 553 x 3297 km, 32.9° (Epoch: 12 November)

Date Brightness Start Highest point End Pass type
(mag) Time Alt. Az. Time Alt. Az. Time Alt. Az.
13 Nov 10.5 04:14:17 10° SSE 04:21:04 16° SE 04:29:27 10° E visible
13 Nov 10.3 06:21:15 10° SW 06:34:12 48° SSE 06:52:26 10° E visible
14 Nov 10.2 05:18:49 10° SSW 05:29:35 35° SE 05:45:07 10° E visible
15 Nov 10.2 04:17:28 10° S 04:25:39 23° SE 04:36:52 10° E visible
15 Nov 9.9 06:26:24 10° SW 06:39:11 56° SSE 06:58:00 10° E visible
16 Nov 10.4 03:19:08 10° SE 03:22:15 11° SE 03:25:46 10° ESE visible
16 Nov 9.9 05:23:38 10° SSW 05:34:24 43° SE 05:50:53 10° E visible
17 Nov 9.9 04:21:40 10° SSW 04:30:21 30° SE 04:43:15 10° E visible
17 Nov 9.7 06:31:49 10° SW 06:44:20 64° SSE 07:03:27 10° E visible
18 Nov 10.0 03:21:07 10° SSE 03:26:53 17° SE 03:34:35 10° E visible
18 Nov 9.6 05:28:48 10° SW 05:39:23 52° SSE 05:56:25 10° E visible
19 Nov 9.6 04:27:21 14° SSW 04:35:11 38° SE 04:49:06 10° E visible
19 Nov 9.5 06:37:23 10° WSW 06:49:38 70° SSE 07:08:51 10° E visible
20 Nov 9.5 03:27:58 19° SSE 03:31:37 24° SE 03:41:22 10° E visible
20 Nov 9.3 05:34:13 10° SW 05:44:34 60° SSE 06:01:50 10° E visible
21 Nov 10.1 02:28:31 12° SE 02:28:34 12° SE 02:31:48 10° ESE visible
21 Nov 9.2 04:34:01 22° SSW 04:40:13 46° SSE 04:54:41 10° E visible
22 Nov 9.1 03:34:31 29° SSE 03:36:31 31° SE 03:47:26 10° E visible
22 Nov 9.0 05:40:01 11° WSW 05:49:55 67° SSE 06:07:10 10° E visible
